Location: Champignolles
(47.0543°N, 4.5663°E)
Time: 04:11:27
(UTC+00:00)

N. Korean satellite - Pass Details

Date: 08 December 2021
Orbit: 447 x 491 km, 97.3° (Epoch: 25 January)

Event Time Altitude Azimuth Distance (km) Brightness Sun altitude
Rises 16:38:00 0° 189° (S) 2,513 10.7 -7.6°
Reaches altitude 10° 16:40:14 10° 200° (SSW) 1,631 9.9 -7.9°
Maximum altitude 16:43:21 30° 263° (W) 868 8.7 -8.4°
Drops below altitude 10° 16:46:28 10° 327° (NNW) 1,621 9.3 -8.9°
Sets 16:48:40 0° 338° (NNW) 2,493 10.2 -9.2°
